[[{"header":{"parameterUnit":"m.s-1","parameterCategory":1,"la1":30.2991,"la2":30.254,"lo1":-89.0895,"lo2":-89.0444,"dy":0.0017,"dx":0.0017,"nx":28,"ny":28,"refTime":"2025-01-25T09:00:00:Z","depth":0,"parameterNumber":2,"parameterNumberName":"U-component_of_WINDS"},"data":[0,0,0,0,0,0,0,0,0,0,0,0,0,0,0,0,0,0,0,0,0,0,0,0,0,0,0,0,0,0,0,0,0,0,0,0,0,0,0,0,0,0,0,0,0,0,0,0,0,0,0,0,0,0,0,0,0,0,-3.2029,-3.2028,0,-3.1939,-3.1938,-3.1937,-3.1761,-3.1757,-3.1754,-3.175,-3.1662,-3.1663,-3.1664,0,0,0,0,0,0,0,0,0,0,0,0,0,-3.2048,-3.2049,-3.2029,-3.2028,-3.2026,-3.1939,-3.1938,-3.1937,-3.1761,-3.1757,-3.1753,-3.1749,-3.1662,-3.1663,-3.1664,0,0,0,0,0,0,0,0,0,0,0,0,0,-3.2008,-3.2049,-3.2029,-3.1928,-3.1918,-3.194,-3.1938,-3.1937,-3.1762,-3.1757,-3.1752,-3.1747,-3.1661,-3.1663,-3.1664,-3.1777,0,0,-3.1668,-3.1669,0,0,0,0,0,0,0,0,-3.201,-3.2007,-3.1944,-3.1935,-3.1924,-3.1856,-3.1912,-3.1883,-3.1764,-3.1822,-3.175,-3.1744,-3.1731,-3.1726,-3.1721,-3.1773,-3.1769,-3.1668,-3.1669,-3.167,-3.167,0,0,0,0,0,0,0,-3.2013,-3.201,-3.1993,-3.1943,-3.1931,-3.1888,-3.1876,-3.1906,-3.1807,-3.1816,-3.1803,-3.1795,-3.1724,-3.172,-3.1718,-3.1768,-3.1668,-3.1669,-3.167,-3.1671,-3.1903,-3.1908,0,0,0,0,0,0,-3.2031,-3.2014,-3.1996,-3.199,-3.1955,-3.1892,-3.1879,-3.1883,-3.1806,-3.1789,-3.1799,-3.1787,-3.172,-3.1716,-3.1714,-3.1837,-3.167,-3.1671,-3.1672,-3.1898,-3.1904,-3.191,0,0,0,0,0,0,-3.2032,-3.2031,-3.2,-3.1998,-3.1991,-3.1897,-3.1903,-3.1884,-3.1879,-3.1793,-3.1775,-3.1813,-3.1716,-3.1712,-3.1761,-3.1832,-3.1671,-3.1673,-3.1892,-3.19,-3.1907,-3.2087,0,0,0,0,0,0,-3.2033,-3.2032,-3.2074,-3.2001,-3.1992,-3.2049,-3.1908,-3.1886,-3.1882,-3.1865,-3.1801,-3.1786,-3.1712,-3.176,-3.1763,-3.1831,-3.1674,-3.1885,-3.1895,-3.1905,-3.2075,-3.2101,-3.2123,0,0,0,0,0,-3.2034,-3.213,-3.2077,-3.2076,-3.2042,-3.2053,-3.2048,-3.196,-3.1888,-3.1929,-3.1873,-3.1788,-3.1825,-3.1767,-3.1768,-3.1838,-3.188,-3.1892,-3.1904,-3.2064,-3.2096,-3.2122,0,0,0,0,0,0,-3.2215,-3.2118,-3.2059,-3.2133,-3.2103,-3.2024,-3.2072,-3.1997,-3.1987,-3.1972,-3.1864,-3.1851,-3.1914,-3.1881,-3.1819,-3.1941,-3.1838,-3.1851,-3.196,-3.1989,-3.2013,-3.2018,-3.1675,0,0,0,0,0,-3.2264,-3.228,-3.2195,-3.2269,-3.2257,-3.2168,-3.217,-3.2104,-3.2069,-3.2055,-3.2003,-3.1972,-3.1976,-3.1981,-3.1981,-3.207,-3.2052,-3.2118,-3.2143,-3.2163,-3.2174,-3.2215,-3.2242,-3.195,-3.195,-3.195,0,0,-3.2364,-3.2313,-3.233,-3.2304,-3.2272,-3.2292,-3.2158,-3.2185,-3.2198,-3.2059,-3.2101,-3.2063,-3.2021,-3.209,-3.2118,-3.2064,-3.2251,-3.2178,-3.2195,-3.2195,-3.223,-3.2258,-3.2283,-3.1958,-3.1957,-3.1955,0,0,-3.2555,-3.252,-3.2575,-3.2547,-3.25,-3.244,-3.2454,-3.2386,-3.2354,-3.2394,-3.229,-3.2304,-3.2315,-3.2288,-3.2276,-3.2456,-3.2376,-3.246,-3.2584,-3.2625,-3.2648,-3.2668,-3.2728,-3.2752,-3.2472,-3.2472,-3.2473,0,-3.2686,-3.271,-3.2614,-3.2646,-3.2637,-3.2511,-3.2566,-3.2543,-3.25,-3.2496,-3.2437,-3.2444,-3.2408,-3.2467,-3.2511,-3.2507,-3.2517,-3.2465,-3.2653,-3.2671,-3.2688,-3.2745,-3.2768,-3.2483,-3.2481,-3.248,-3.2479,0,-3.2871,-3.2889,-3.294,-3.2898,-3.2895,-3.2939,-3.285,-3.2858,-3.2793,-3.274,-3.2781,-3.2733,-3.2719,-3.2729,-3.2667,-3.2778,-3.2746,-3.2672,-3.2566,-3.2728,-3.2779,-3.28,-3.2497,-3.2493,-3.249,-3.2488,0,0,-3.3172,-3.3076,-3.3096,-3.3074,-3.3013,-3.3025,-3.3064,-3.3048,-3.3055,-3.3031,-3.3058,-3.3069,-3.2998,-3.2985,-3.2919,-3.2956,-3.3097,-3.2876,-3.2873,-3.2915,-3.3212,-3.3266,-3.3292,-3.3045,-3.3049,-3.3052,-3.3214,0,-3.3346,-3.3403,-3.3318,-3.3395,-3.3409,-3.329,-3.3322,-3.3289,-3.324,-3.3245,-3.3191,-3.3199,-3.3108,-3.3098,-3.313,-3.3074,-3.3155,-3.3061,-3.3067,-3.3068,-3.3077,-3.3319,-3.3376,-3.3532,-3.3234,-3.3238,-3.324,0,-3.3557,-3.3539,-3.3617,-3.3548,-3.3551,-3.3582,-3.3559,-3.3566,-3.3525,-3.3487,-3.3472,-3.3393,-3.3424,-3.3325,-3.3365,-3.3303,-3.3301,-3.3274,-3.3278,-3.3271,-3.3161,-3.3316,-3.358,-3.3602,-3.3271,-3.3269,-3.3266,0,-3.3763,-3.376,-3.3804,-3.379,-3.3713,-3.3737,-3.3706,-3.3659,-3.3655,-3.3636,-3.3631,-3.3618,-3.3609,-3.36,-3.3519,-3.3455,-3.3568,-3.3463,-3.3535,-3.3537,-3.3561,-3.356,-3.3824,-3.3568,-3.3567,-3.3567,-3.3566,0,-3.3965,-3.4016,-3.3895,-3.3922,-3.3976,-3.3878,-3.3933,-3.389,-3.385,-3.3866,-3.3765,-3.3783,-3.3677,-3.3683,-3.362,-3.3661,-3.3659,-3.3627,-3.3609,-3.3634,-3.3637,-3.3628,-3.3613,-3.3573,-3.3572,-3.357,-3.3569,0,-3.4202,-3.4124,-3.4164,-3.4087,-3.4069,-3.4112,-3.4045,-3.4067,-3.4012,-3.4033,-3.4033,-3.3946,-3.3948,-3.3867,-3.3853,-3.3811,-3.3877,-3.3842,-3.389,-3.3877,-3.3952,-3.3944,-3.4216,-3.4245,-3.3975,-3.3978,-3.398,0,-3.4334,-3.4369,-3.4296,-3.4299,-3.4272,-3.4279,-3.4273,-3.4179,-3.4177,-3.4132,-3.4158,-3.4151,-3.414,-3.4148,-3.4083,-3.4072,-3.4032,-3.4129,-3.403,-3.4052,-3.4028,-3.4025,-3.4026,-3.4148,-3.4151,-3.4154,-3.4157,0,-3.4573,-3.4532,-3.4527,-3.4508,-3.4503,-3.4484,-3.4459,-3.4467,-3.4364,-3.4367,-3.4366,-3.4358,-3.4342,-3.4335,-3.4311,-3.4278,-3.42,-3.4189,-3.4204,-3.4227,-3.4251,-3.4234,-3.3942,-3.4182,-3.4179,-3.4177,-3.4176,-3.4175,-3.4758,-3.4783,-3.4734,-3.4731,-3.4702,-3.468,-3.4695,-3.4641,-3.4639,-3.4617,-3.4563,-3.457,-3.4526,-3.4485,-3.446,-3.4464,-3.4416,-3.444,-3.4444,-3.445,-3.4462,-3.4255,-3.446,-3.446,-3.4459,-3.4458,-3.4457,0,-3.4988,-3.495,-3.4949,-3.4915,-3.4912,-3.4839,-3.4807,-3.4809,-3.4817,-3.4783,-3.4773,-3.4771,-3.4764,-3.4699,-3.4684,-3.47,-3.4663,-3.4698,-3.4694,-3.4687,-3.4509,-3.4495,-3.4728,-3.4728,-3.4728,-3.4728,-3.4728,-3.4728,-3.5107,-3.5143,-3.5097,-3.5118,-3.508,-3.5086,-3.5073,-3.5052,-3.5023,-3.5025,-3.5018,-3.4976,-3.4929,-3.4909,-3.4898,-3.4879,-3.4877,-3.4924,-3.4892,-3.4726,-3.47,-3.4675,-3.4661,-3.4925,-3.4925,-3.5069,-3.507,-3.5071]},{"header":{"parameterUnit":"m.s-1","parameterCategory":1,"la1":30.2991,"la2":30.254,"lo1":-89.0895,"lo2":-89.0444,"dy":0.0017,"dx":0.0017,"nx":28,"ny":28,"refTime":"2025-01-25T09:00:00:Z","depth":0,"parameterNumber":3,"parameterNumberName":"V-component_of_WINDS"},"data":[0,0,0,0,0,0,0,0,0,0,0,0,0,0,0,0,0,0,0,0,0,0,0,0,0,0,0,0,0,0,0,0,0,0,0,0,0,0,0,0,0,0,0,0,0,0,0,0,0,0,0,0,0,0,0,0,0,0,-1.0115,-1.0115,0,-1.015,-1.0151,-1.0151,-1.0207,-1.0208,-1.0209,-1.021,-1.0242,-1.0242,-1.0242,0,0,0,0,0,0,0,0,0,0,0,0,0,-1.0087,-1.0087,-1.0114,-1.0115,-1.0115,-1.015,-1.0151,-1.0151,-1.0207,-1.0208,-1.0209,-1.0211,-1.0242,-1.0242,-1.0242,0,0,0,0,0,0,0,0,0,0,0,0,0,-1.0108,-1.0087,-1.0114,-1.0147,-1.0151,-1.015,-1.0151,-1.0151,-1.0207,-1.0208,-1.021,-1.0211,-1.0242,-1.0242,-1.0242,-1.021,0,0,-1.0241,-1.0241,0,0,0,0,0,0,0,0,-1.0107,-1.0109,-1.0142,-1.0145,-1.0149,-1.0176,-1.0153,-1.0171,-1.0206,-1.0185,-1.021,-1.0212,-1.0218,-1.022,-1.0224,-1.0212,-1.0213,-1.0241,-1.0241,-1.0241,-1.0241,0,0,0,0,0,0,0,-1.0106,-1.0108,-1.0129,-1.0143,-1.0147,-1.0158,-1.0163,-1.0156,-1.0193,-1.0187,-1.0191,-1.0195,-1.0221,-1.0224,-1.0225,-1.0214,-1.0241,-1.0241,-1.0241,-1.0241,-1.0171,-1.017,0,0,0,0,0,0,-1.01,-1.0107,-1.0127,-1.013,-1.0132,-1.0157,-1.0163,-1.0166,-1.0193,-1.0199,-1.0194,-1.0198,-1.0223,-1.0225,-1.0226,-1.0186,-1.0241,-1.0241,-1.0241,-1.0173,-1.0171,-1.0169,0,0,0,0,0,0,-1.0099,-1.0101,-1.0126,-1.0119,-1.0123,-1.0156,-1.0159,-1.0165,-1.0169,-1.0198,-1.0204,-1.0191,-1.0224,-1.0226,-1.0213,-1.0188,-1.0241,-1.0241,-1.0175,-1.0172,-1.017,-1.011,0,0,0,0,0,0,-1.0098,-1.0101,-1.0091,-1.0119,-1.0123,-1.0114,-1.0158,-1.0165,-1.0169,-1.0174,-1.0197,-1.0202,-1.0226,-1.0213,-1.0212,-1.0189,-1.0241,-1.0177,-1.0174,-1.0171,-1.0114,-1.0105,-1.0098,0,0,0,0,0,-1.0097,-1.0073,-1.009,-1.0093,-1.0112,-1.0113,-1.0115,-1.0145,-1.0167,-1.0155,-1.0173,-1.0201,-1.0192,-1.0211,-1.0211,-1.0187,-1.0179,-1.0175,-1.0171,-1.0117,-1.0107,-1.0098,0,0,0,0,0,0,-1.0041,-1.0077,-1.0097,-1.0082,-1.0094,-1.0122,-1.0109,-1.0133,-1.0138,-1.0143,-1.0178,-1.0182,-1.0163,-1.0175,-1.0195,-1.0155,-1.0189,-1.0185,-1.0148,-1.0139,-1.0131,-1.0127,-1.0241,0,0,0,0,0,-1.0027,-1.0027,-1.0058,-1.0041,-1.0046,-1.0076,-1.0078,-1.0099,-1.0112,-1.0117,-1.0135,-1.0145,-1.0144,-1.0142,-1.0144,-1.0116,-1.0119,-1.01,-1.0092,-1.0085,-1.008,-1.0061,-1.0051,-1.0156,-1.0156,-1.0156,0,0,-0.9998,-1.0018,-1.0015,-1.003,-1.0042,-1.0037,-1.008,-1.0075,-1.0071,-1.0116,-1.0103,-1.0116,-1.013,-1.0108,-1.0099,-1.0116,-1.0052,-1.008,-1.0075,-1.0073,-1.0056,-1.0046,-1.0037,-1.0153,-1.0154,-1.0154,0,0,-0.9942,-0.9959,-0.9944,-0.9955,-0.9972,-0.9992,-0.9988,-1.0012,-1.0022,-1.0011,-1.0043,-1.0038,-1.0037,-1.0043,-1.0046,-0.9988,-1.0011,-0.9987,-0.9944,-0.9925,-0.9917,-0.9909,-0.9884,-0.9875,-0.9983,-0.9983,-0.9983,0,-0.9903,-0.9899,-0.9933,-0.9924,-0.9927,-0.9969,-0.9952,-0.996,-0.9976,-0.9976,-0.9997,-0.9992,-1.0005,-0.9982,-0.9968,-0.9971,-0.9964,-0.9984,-0.9916,-0.9909,-0.9902,-0.9878,-0.9869,-0.9979,-0.998,-0.998,-0.9981,0,-0.9848,-0.9844,-0.983,-0.9844,-0.9846,-0.9834,-0.9862,-0.986,-0.988,-0.9897,-0.9881,-0.9897,-0.9899,-0.9897,-0.9917,-0.9875,-0.9885,-0.991,-0.9944,-0.9888,-0.9866,-0.9857,-0.9975,-0.9976,-0.9977,-0.9978,0,0,-0.9757,-0.9789,-0.9782,-0.9787,-0.9808,-0.9804,-0.9791,-0.9795,-0.9789,-0.9799,-0.9785,-0.9782,-0.9804,-0.9807,-0.9828,-0.9812,-0.9758,-0.9838,-0.9839,-0.9818,-0.9706,-0.9684,-0.9673,-0.9775,-0.9773,-0.9772,-0.9703,0,-0.9702,-0.9683,-0.9711,-0.9685,-0.9679,-0.9717,-0.9705,-0.9714,-0.9728,-0.9723,-0.9739,-0.9733,-0.9766,-0.9767,-0.9753,-0.9767,-0.9735,-0.9773,-0.9758,-0.9757,-0.9749,-0.9662,-0.964,-0.9574,-0.9695,-0.9694,-0.9693,0,-0.9635,-0.964,-0.9612,-0.963,-0.9629,-0.9618,-0.962,-0.9617,-0.9626,-0.9637,-0.9639,-0.9664,-0.9648,-0.9684,-0.966,-0.9685,-0.9681,-0.9686,-0.9684,-0.9681,-0.9719,-0.9651,-0.9555,-0.9543,-0.968,-0.9681,-0.9682,0,-0.9566,-0.9566,-0.9548,-0.9552,-0.9574,-0.9564,-0.9572,-0.9583,-0.9582,-0.9583,-0.9581,-0.9581,-0.958,-0.9577,-0.9599,-0.9624,-0.957,-0.9609,-0.9575,-0.9574,-0.956,-0.9559,-0.9456,-0.9564,-0.9564,-0.9564,-0.9565,0,-0.9499,-0.9479,-0.9516,-0.9505,-0.9482,-0.9514,-0.949,-0.9502,-0.9511,-0.9499,-0.9533,-0.9521,-0.9553,-0.9544,-0.9561,-0.9535,-0.9536,-0.9541,-0.9545,-0.9535,-0.9534,-0.953,-0.9533,-0.9562,-0.9562,-0.9563,-0.9563,0,-0.9417,-0.9442,-0.9424,-0.9445,-0.945,-0.9432,-0.9448,-0.9437,-0.9453,-0.9437,-0.9436,-0.9459,-0.9449,-0.9472,-0.9466,-0.9477,-0.9438,-0.9452,-0.9435,-0.9437,-0.94,-0.9401,-0.9287,-0.9271,-0.9393,-0.9392,-0.9391,0,-0.937,-0.9356,-0.9375,-0.937,-0.9376,-0.9369,-0.9367,-0.9396,-0.9392,-0.9399,-0.9385,-0.9378,-0.9374,-0.9355,-0.937,-0.9363,-0.9374,-0.9334,-0.9373,-0.9362,-0.9366,-0.9365,-0.9361,-0.9325,-0.9323,-0.9322,-0.9321,0,-0.9284,-0.9296,-0.9293,-0.9292,-0.9288,-0.9289,-0.9292,-0.9286,-0.9316,-0.9309,-0.93,-0.9296,-0.9288,-0.9278,-0.9275,-0.928,-0.9303,-0.9309,-0.93,-0.9288,-0.9276,-0.9276,-0.9408,-0.9311,-0.9312,-0.9313,-0.9313,-0.9314,-0.9215,-0.9201,-0.9211,-0.9205,-0.921,-0.9211,-0.9199,-0.9213,-0.9206,-0.9202,-0.922,-0.9204,-0.9209,-0.9207,-0.9209,-0.9195,-0.9212,-0.9201,-0.9197,-0.9192,-0.9183,-0.9282,-0.9195,-0.9196,-0.9196,-0.9196,-0.9196,0,-0.9125,-0.9133,-0.9127,-0.9129,-0.9122,-0.9148,-0.9151,-0.9143,-0.9129,-0.9133,-0.9127,-0.9113,-0.9103,-0.9116,-0.9107,-0.9092,-0.9102,-0.9088,-0.9087,-0.9087,-0.9171,-0.9178,-0.908,-0.908,-0.908,-0.908,-0.908,-0.908,-0.9078,-0.9055,-0.9067,-0.9045,-0.9053,-0.9038,-0.9037,-0.9036,-0.9039,-0.9021,-0.9013,-0.9022,-0.9028,-0.9019,-0.9009,-0.9013,-0.9005,-0.8986,-0.8993,-0.9071,-0.9082,-0.9093,-0.9098,-0.8986,-0.8986,-0.8909,-0.8909,-0.8908]}]]